Location: Allie Creek
(37.5926°N, 89.8526°W)
Time: 05:06:07
(UTC+00:00)

Cosmos 2322 Rocket - Pass Details

Date: 26 September 2023
Orbit: 831 x 852 km, 71.0° (Epoch: 29 November)

Event Time Altitude Azimuth Distance (km) Brightness Sun altitude
Rises 08:48:09 0° 348° (NNW) 3,395 5.6 -35.4°
Reaches altitude 10° 08:50:56 10° 360° (N) 2,461 4.9 -34.9°
Maximum altitude 08:55:47 29° 59° (ENE) 1,514 4.0 -34.1°
Drops below altitude 10° 09:00:37 10° 118° (ESE) 2,462 5.0 -33.3°
Sets 09:03:23 0° 129° (SE) 3,396 5.6 -32.8°
